[[{"header":{"parameterUnit":"m.s-1","parameterCategory":1,"la1":30.2991,"la2":30.254,"lo1":-89.0895,"lo2":-89.0444,"dy":0.0017,"dx":0.0017,"nx":28,"ny":28,"refTime":"2024-03-17T21:00:00:Z","depth":0,"parameterNumber":2,"parameterNumberName":"U-component_of_WINDS"},"data":[0,0,0,0,0,0,0,0,0,0,0,0,0,0,0,0,0,0,0,0,0,0,0,0,0,0,0,0,0,0,0,0,0,0,0,0,0,0,0,0,0,0,0,0,0,0,0,0,0,0,0,0,0,0,0,0,0,0,-1.9875,-1.9877,0,-2.0064,-2.0066,-2.0068,-2.0145,-2.0145,-2.0144,-2.0144,-2.0343,-2.0348,-2.0354,0,0,0,0,0,0,0,0,0,0,0,0,0,-1.9589,-1.9594,-1.9875,-1.9877,-1.9879,-2.0063,-2.0066,-2.0069,-2.0145,-2.0145,-2.0144,-2.0144,-2.0341,-2.0348,-2.0355,0,0,0,0,0,0,0,0,0,0,0,0,0,-1.9739,-1.9595,-1.9874,-1.994,-1.9947,-2.0063,-2.0066,-2.0069,-2.0145,-2.0145,-2.0144,-2.0143,-2.0339,-2.0347,-2.0356,-2.0422,0,0,-2.0382,-2.0385,0,0,0,0,0,0,0,0,-1.973,-1.9749,-1.9928,-1.9935,-1.9944,-2.008,-2.0038,-2.0188,-2.0145,-2.007,-2.0144,-2.0143,-2.0256,-2.0272,-2.0309,-2.0431,-2.044,-2.0382,-2.0388,-2.0391,-2.0394,0,0,0,0,0,0,0,-1.972,-1.9742,-1.995,-1.993,-1.994,-1.9962,-1.9983,-2.0067,-2.0165,-2.0077,-2.0083,-2.0104,-2.0261,-2.03,-2.0314,-2.0442,-2.0382,-2.039,-2.0395,-2.0398,-2.0634,-2.0635,0,0,0,0,0,0,-1.9698,-1.9732,-1.9944,-1.9955,-1.9833,-1.9968,-1.9991,-2.0037,-2.0164,-2.0183,-2.0104,-2.0107,-2.0286,-2.0304,-2.0321,-2.0409,-2.0391,-2.0399,-2.0404,-2.0633,-2.0634,-2.0635,0,0,0,0,0,0,-1.9691,-1.9716,-1.9936,-1.9846,-1.9875,-1.9974,-2.0025,-2.0041,-2.0081,-2.0185,-2.0203,-2.0126,-2.0286,-2.0309,-2.0397,-2.0417,-2.0403,-2.0411,-2.0631,-2.0633,-2.0635,-2.0583,0,0,0,0,0,0,-1.9683,-1.9713,-1.9736,-1.9845,-1.988,-2.0005,-2.0026,-2.0045,-2.0095,-2.01,-2.021,-2.0228,-2.0287,-2.0384,-2.0405,-2.0429,-2.0418,-2.063,-2.0632,-2.0634,-2.0584,-2.0583,-2.0583,0,0,0,0,0,-1.9672,-1.9715,-1.9737,-1.9762,-1.9911,-2.0006,-2.0026,-2.0092,-2.0096,-2.0122,-2.019,-2.0224,-2.0412,-2.0392,-2.0417,-2.0443,-2.0629,-2.0632,-2.0634,-2.0584,-2.0583,-2.0583,0,0,0,0,0,0,-1.9606,-1.973,-1.9756,-1.9835,-1.9909,-2.0019,-2.0053,-2.0089,-2.0165,-2.0166,-2.0247,-2.0272,-2.0353,-2.0408,-2.0383,-2.0517,-2.0524,-2.0531,-2.0477,-2.0477,-2.0477,-2.0461,-2.0425,0,0,0,0,0,-1.9601,-1.9665,-1.9771,-1.9831,-1.9867,-1.9954,-1.9998,-2.0042,-2.0123,-2.0156,-2.023,-2.0309,-2.0386,-2.0435,-2.0512,-2.0593,-2.062,-2.0624,-2.0624,-2.0623,-2.0628,-2.0679,-2.0682,-2.0643,-2.0643,-2.0643,0,0,-1.959,-1.9666,-1.9702,-1.982,-1.9882,-1.995,-1.9979,-2.0049,-2.0101,-2.0167,-2.0253,-2.0311,-2.0406,-2.0491,-2.0533,-2.0539,-2.0646,-2.0626,-2.0624,-2.063,-2.0682,-2.0685,-2.0688,-2.0645,-2.0645,-2.0645,0,0,-1.9606,-1.9669,-1.9726,-1.9789,-1.9884,-1.9942,-1.9956,-2.0062,-2.0102,-2.019,-2.0242,-2.0308,-2.0438,-2.0504,-2.0554,-2.06,-2.0636,-2.0624,-2.062,-2.0668,-2.0671,-2.0674,-2.0692,-2.0697,-2.0629,-2.0629,-2.0629,0,-1.9581,-1.9682,-1.9752,-1.9819,-1.9871,-1.9934,-1.9995,-2.0053,-2.0169,-2.0205,-2.021,-2.0378,-2.0446,-2.0549,-2.056,-2.0599,-2.062,-2.061,-2.0665,-2.0669,-2.0673,-2.0691,-2.0697,-2.0627,-2.0627,-2.0627,-2.0627,0,-1.9648,-1.9718,-1.9754,-1.9863,-1.992,-1.9983,-2.0066,-2.0115,-2.0157,-2.0216,-2.0308,-2.0392,-2.0488,-2.0517,-2.0558,-2.0627,-2.0629,-2.0649,-2.0657,-2.0673,-2.0691,-2.0699,-2.0623,-2.0624,-2.0625,-2.0625,0,0,-1.9624,-1.9773,-1.9785,-1.9836,-1.9948,-2.0005,-2.0074,-2.0167,-2.0208,-2.0288,-2.035,-2.0461,-2.0482,-2.0539,-2.059,-2.0632,-2.0665,-2.0648,-2.0651,-2.0648,-2.075,-2.0733,-2.0739,-2.0691,-2.0693,-2.0694,-2.0742,0,-1.9654,-1.9777,-1.9844,-1.994,-2.0007,-2.007,-2.0131,-2.0208,-2.0266,-2.0335,-2.0401,-2.0479,-2.0499,-2.0535,-2.058,-2.0651,-2.0687,-2.0649,-2.0751,-2.0754,-2.0723,-2.0749,-2.0731,-2.0772,-2.075,-2.0751,-2.0752,0,-1.9705,-1.9782,-1.9884,-1.9991,-2.0022,-2.0074,-2.0167,-2.0231,-2.0321,-2.0361,-2.0427,-2.0478,-2.0557,-2.0562,-2.0674,-2.0647,-2.0694,-2.0736,-2.074,-2.075,-2.0752,-2.076,-2.0786,-2.0792,-2.0764,-2.0763,-2.0762,0,-1.9677,-1.9807,-1.9886,-1.9928,-2.0054,-2.009,-2.0145,-2.0235,-2.0288,-2.037,-2.0406,-2.0498,-2.0547,-2.0619,-2.0694,-2.069,-2.08,-2.081,-2.0838,-2.0836,-2.0856,-2.0853,-2.0889,-2.0887,-2.0887,-2.0887,-2.0887,0,-1.9703,-1.9764,-1.9875,-1.9923,-1.9995,-2.0073,-2.0143,-2.0203,-2.0283,-2.0347,-2.0409,-2.0468,-2.0565,-2.0637,-2.0698,-2.0783,-2.0805,-2.0842,-2.0857,-2.0835,-2.0831,-2.0866,-2.0865,-2.0889,-2.0889,-2.0888,-2.0888,0,-1.9684,-1.976,-1.9851,-1.9963,-1.9993,-2.0041,-2.0139,-2.019,-2.0253,-2.0334,-2.0357,-2.0457,-2.0546,-2.0629,-2.0748,-2.0789,-2.0875,-2.0895,-2.0843,-2.0852,-2.0874,-2.0871,-2.0933,-2.0946,-2.0935,-2.0935,-2.0935,0,-1.9694,-1.9742,-1.986,-1.9906,-1.9959,-2.0033,-2.0088,-2.0169,-2.0224,-2.0333,-2.0372,-2.0465,-2.0544,-2.0684,-2.0769,-2.0862,-2.0884,-2.09,-2.0899,-2.0877,-2.0885,-2.0881,-2.0887,-2.0898,-2.0898,-2.0897,-2.0897,0,-1.9706,-1.9743,-1.9817,-1.9906,-1.9969,-2.0043,-2.012,-2.0155,-2.0252,-2.0312,-2.0402,-2.0463,-2.0586,-2.0679,-2.0782,-2.0842,-2.0887,-2.0898,-2.0909,-2.0887,-2.0855,-2.0873,-2.0839,-2.0895,-2.0895,-2.0895,-2.0896,-2.0896,-1.9703,-1.9749,-1.984,-1.9922,-1.9988,-2.0059,-2.0113,-2.0183,-2.026,-2.0363,-2.0409,-2.0501,-2.0596,-2.0738,-2.0799,-2.0876,-2.0885,-2.0901,-2.0905,-2.0908,-2.0904,-2.0844,-2.0895,-2.0895,-2.0895,-2.0896,-2.0896,0,-1.9718,-1.978,-1.9855,-1.996,-2.0025,-2.0061,-2.0149,-2.0202,-2.0281,-2.0365,-2.0441,-2.0548,-2.0639,-2.0733,-2.0831,-2.0874,-2.0897,-2.0897,-2.0894,-2.0908,-2.0889,-2.0869,-2.0877,-2.0877,-2.0877,-2.0877,-2.0877,-2.0877,-1.9734,-1.9814,-1.9862,-1.9978,-2.0041,-2.013,-2.0177,-2.0245,-2.0312,-2.0427,-2.0502,-2.0562,-2.0651,-2.0757,-2.0844,-2.087,-2.0903,-2.0897,-2.0928,-2.0908,-2.0909,-2.091,-2.0891,-2.0903,-2.0903,-2.0941,-2.0941,-2.0941]},{"header":{"parameterUnit":"m.s-1","parameterCategory":1,"la1":30.2991,"la2":30.254,"lo1":-89.0895,"lo2":-89.0444,"dy":0.0017,"dx":0.0017,"nx":28,"ny":28,"refTime":"2024-03-17T21:00:00:Z","depth":0,"parameterNumber":3,"parameterNumberName":"V-component_of_WINDS"},"data":[0,0,0,0,0,0,0,0,0,0,0,0,0,0,0,0,0,0,0,0,0,0,0,0,0,0,0,0,0,0,0,0,0,0,0,0,0,0,0,0,0,0,0,0,0,0,0,0,0,0,0,0,0,0,0,0,0,0,0.7749,0.7749,0,0.7785,0.7786,0.7786,0.7834,0.7834,0.7835,0.7836,0.7874,0.7874,0.7874,0,0,0,0,0,0,0,0,0,0,0,0,0,0.7724,0.7724,0.7749,0.7749,0.7749,0.7785,0.7786,0.7786,0.7834,0.7834,0.7835,0.7836,0.7874,0.7874,0.7874,0,0,0,0,0,0,0,0,0,0,0,0,0,0.7745,0.7724,0.7748,0.7777,0.778,0.7785,0.7786,0.7786,0.7833,0.7835,0.7836,0.7837,0.7874,0.7874,0.7874,0.7853,0,0,0.7876,0.7876,0,0,0,0,0,0,0,0,0.7744,0.7746,0.7773,0.7775,0.7779,0.7806,0.7791,0.7809,0.7833,0.7813,0.7836,0.7837,0.785,0.7853,0.7857,0.7855,0.7857,0.7876,0.7876,0.7876,0.7876,0,0,0,0,0,0,0,0.7742,0.7745,0.7763,0.7773,0.7777,0.779,0.7794,0.7794,0.7825,0.7815,0.7819,0.7822,0.7852,0.7856,0.7858,0.7857,0.7876,0.7876,0.7876,0.7876,0.7847,0.7846,0,0,0,0,0,0,0.7736,0.7743,0.7762,0.7764,0.7764,0.779,0.7794,0.7796,0.7825,0.783,0.7821,0.7824,0.7855,0.7858,0.786,0.7841,0.7876,0.7876,0.7877,0.7848,0.7847,0.7846,0,0,0,0,0,0,0.7735,0.7737,0.776,0.7755,0.7759,0.7789,0.779,0.7796,0.7801,0.783,0.7835,0.782,0.7856,0.7859,0.7856,0.7843,0.7877,0.7877,0.7849,0.7848,0.7846,0.7801,0,0,0,0,0,0,0.7734,0.7737,0.7728,0.7754,0.7759,0.7754,0.7789,0.7796,0.7801,0.7806,0.783,0.7835,0.7857,0.7855,0.7856,0.7844,0.7877,0.785,0.7848,0.7847,0.7804,0.7798,0.7793,0,0,0,0,0,0.7733,0.7712,0.7727,0.7729,0.7748,0.7754,0.7756,0.7782,0.78,0.7792,0.7812,0.7834,0.7844,0.7854,0.7856,0.7844,0.7851,0.7849,0.7847,0.7806,0.7799,0.7793,0,0,0,0,0,0,0.7682,0.7716,0.7733,0.7719,0.7733,0.7762,0.7752,0.7773,0.7783,0.7786,0.7819,0.7824,0.7818,0.7831,0.7841,0.7828,0.7852,0.7849,0.782,0.7814,0.7809,0.7806,0.7878,0,0,0,0,0,0.767,0.7671,0.7701,0.7686,0.7692,0.7721,0.7724,0.7744,0.776,0.7766,0.7785,0.78,0.7808,0.7811,0.7819,0.7806,0.7814,0.7799,0.7794,0.7789,0.7787,0.7787,0.7781,0.7838,0.7838,0.7838,0,0,0.7643,0.7662,0.766,0.7676,0.769,0.7692,0.7726,0.7725,0.7728,0.7766,0.7765,0.778,0.78,0.7793,0.7791,0.7803,0.7774,0.7786,0.7783,0.7783,0.7784,0.7778,0.7773,0.7836,0.7837,0.7837,0,0,0.7597,0.761,0.7601,0.7615,0.7635,0.7655,0.7653,0.768,0.7691,0.7691,0.7721,0.7726,0.7736,0.775,0.7759,0.7724,0.7746,0.7725,0.7698,0.7696,0.7692,0.7688,0.7679,0.7675,0.7723,0.7723,0.7723,0,0.7561,0.7565,0.7594,0.7594,0.7602,0.7638,0.7631,0.7643,0.7664,0.767,0.7684,0.7701,0.7716,0.7716,0.7708,0.7712,0.7714,0.7722,0.769,0.7687,0.7684,0.7675,0.7671,0.772,0.7721,0.7721,0.7721,0,0.7523,0.7525,0.7516,0.7538,0.7545,0.7541,0.7572,0.7576,0.7596,0.7615,0.7618,0.7638,0.7653,0.7654,0.7672,0.7658,0.7665,0.7684,0.7708,0.7675,0.7668,0.7665,0.7717,0.7718,0.7719,0.7719,0,0,0.7442,0.7484,0.748,0.7493,0.752,0.7523,0.7523,0.7539,0.7543,0.7558,0.7561,0.7571,0.7591,0.76,0.7621,0.762,0.7596,0.764,0.7641,0.7633,0.7585,0.7572,0.7568,0.7611,0.7611,0.761,0.7585,0,0.7403,0.7404,0.7433,0.7427,0.7432,0.7469,0.7469,0.7487,0.7507,0.7515,0.7537,0.7545,0.7568,0.7575,0.7575,0.7598,0.7587,0.7601,0.7616,0.7616,0.7611,0.7563,0.7548,0.7523,0.7582,0.7581,0.7581,0,0.7356,0.737,0.7365,0.7397,0.7401,0.74,0.742,0.7426,0.7449,0.7464,0.7477,0.7502,0.7507,0.753,0.7539,0.7548,0.7557,0.757,0.757,0.7573,0.7597,0.7567,0.7515,0.7512,0.7576,0.7576,0.7577,0,0.7302,0.732,0.7321,0.733,0.7366,0.7366,0.7381,0.7405,0.7415,0.7432,0.7439,0.7456,0.7466,0.7479,0.751,0.7523,0.7517,0.7541,0.7532,0.7531,0.7529,0.7529,0.7479,0.7531,0.7531,0.7532,0.7532,0,0.7256,0.7252,0.7297,0.7298,0.7296,0.733,0.7328,0.7347,0.737,0.7376,0.7409,0.7415,0.7454,0.7465,0.7489,0.7495,0.7499,0.7513,0.7519,0.751,0.7509,0.7517,0.752,0.7531,0.7531,0.7531,0.7531,0,0.7195,0.7224,0.7228,0.7264,0.7273,0.7271,0.7302,0.7305,0.7328,0.7337,0.7341,0.7377,0.7392,0.7424,0.7448,0.7464,0.7466,0.7476,0.7458,0.7463,0.7452,0.7454,0.7407,0.7404,0.7456,0.7456,0.7455,0,0.7164,0.7162,0.7199,0.7206,0.722,0.7231,0.7241,0.7276,0.7286,0.7315,0.7316,0.7334,0.735,0.7374,0.7403,0.7423,0.7436,0.7418,0.7438,0.7431,0.7439,0.7439,0.7441,0.7414,0.7413,0.7412,0.7412,0,0.7107,0.7123,0.7136,0.7156,0.7168,0.7185,0.7204,0.7209,0.7249,0.7259,0.7276,0.7288,0.7315,0.7334,0.7358,0.7376,0.7402,0.7405,0.7405,0.7396,0.7387,0.7395,0.7448,0.7406,0.7407,0.7407,0.7407,0.7408,0.7062,0.7064,0.7091,0.7106,0.7125,0.7143,0.715,0.7175,0.7189,0.7213,0.7234,0.7249,0.7277,0.7314,0.733,0.7345,0.7357,0.7355,0.7355,0.7354,0.7352,0.7384,0.7349,0.735,0.735,0.735,0.735,0,0.7009,0.703,0.7043,0.707,0.7083,0.7107,0.713,0.714,0.7154,0.7177,0.7194,0.7216,0.7235,0.7268,0.7291,0.7297,0.7309,0.7302,0.7302,0.7307,0.7338,0.7338,0.7291,0.7291,0.7291,0.7291,0.7291,0.7291,0.6983,0.6989,0.701,0.7027,0.7047,0.7063,0.7076,0.7094,0.7114,0.7136,0.7153,0.7174,0.7203,0.7229,0.725,0.7259,0.7267,0.7256,0.7269,0.7298,0.7304,0.7309,0.7309,0.7257,0.7257,0.7237,0.7237,0.7236]}]]